User: anonymous   Login
Location: Unspecified
(0.0000°N, 0.0000°E)
Time: 12:39:03
(UTC+02:00)
Language:

NOAA 12 - Orbit

View from above orbital plane
View from above orbital plane
View from above satellite
View from above satellite

Ground track
Ground track

The orbit data is extracted from the following two-line orbital elements,

1 21263U 91032A   15088.51138231  .00000136  00000-0  75365-4 0  9995
2 21263 098.6375 116.6551 0014772 124.7354 359.2877 14.25743055241213
Epoch (UTC): 29 March 2015 12:16:23
Eccentricity: 0.0014772
inclination: 98.6375°
perigee height: 795 km
apogee height: 816 km
right ascension of ascending node: 116.6551°
argument of perigee: 124.7354°
revolutions per day: 14.25743055
mean anomaly at epoch: 359.2877°
orbit number at epoch: 24121

The dashed part of the orbit path shows where the satellite is in the earth's shadow,  

DLR